Date String (YYYY-MM-DD hh:mm:ss) UTC,Instrument flags,absolute air pressure of the measurement (hPa),sample flow rate (lpm),inlet stack bypass flow (lpm),air temperature of the measurement (°C),ambient temperature measured by the external sensor (°C),aerosol sample conditioner tube jacket temperature (°C),OPC LED temperature (°C),internal box temperature (°C),relative humidity of the measurement (%),span deviation,mass concentration of particles derived from Lorenz-Mie calculation of OPC scattering (μg/m³),mass concentration of particles derived from Lorenz-Mie calculation of OPC scattering (μg/m³),mass concentration of particles derived from Lorenz-Mie calculation of OPC scattering (μg/m³)
DateTimeUTC,F1_M11,P_M11,Q1_M11,Q2_M11,T1_M11,T2_M11,T3_M11,T4_M11,T5_M11,U1_M11,ZSPAN_M11,X2_M11,X0_M11,X1_M11
2023-06-10 14:00:00,SystemResetWarning,0829.7,5.00,000.00,029.9,028.3,000.0,038.4,031.3,25.5,0000.0,0003.70,0007.76,0002.97
2023-06-10 14:01:00,SystemResetWarning,0829.7,5.00,000.00,029.9,028.4,000.0,038.4,031.3,25.7,0000.0,0003.70,0007.69,0002.98
2023-06-10 14:02:00,SystemResetWarning,0829.7,5.00,000.00,029.9,028.4,000.0,038.4,031.3,24.5,0000.0,0003.70,0007.67,0002.99
2023-06-10 14:03:00,SystemResetWarning,0829.7,5.00,000.00,029.9,028.4,000.0,038.4,031.3,26.4,0000.0,0003.72,0007.68,0002.99
2023-06-10 14:04:00,SystemResetWarning,0829.7,5.00,000.00,029.9,028.4,000.0,038.4,031.3,26.5,0000.0,0003.72,0007.65,0003.01
2023-06-10 14:05:00,SystemResetWarning,0829.7,5.00,000.00,029.9,028.4,000.0,038.4,031.4,26.8,0000.0,0003.75,0007.66,0003.05
2023-06-10 14:06:00,SystemResetWarning,0829.7,5.00,000.00,029.9,028.4,000.0,038.4,031.4,26.9,0000.0,0003.77,0007.58,0003.06
2023-06-10 14:07:00,SystemResetWarning,0829.7,5.00,000.00,030.0,028.4,000.0,038.4,031.4,27.0,0000.0,0003.75,0007.32,0003.07
2023-06-10 14:08:00,SystemResetWarning,0829.7,5.00,000.00,030.0,028.5,000.0,038.5,031.4,26.2,0000.0,0003.77,0007.82,0003.10
2023-06-10 14:09:00,SystemResetWarning,0829.7,5.00,000.00,030.0,028.5,000.0,038.5,031.4,25.5,0000.0,0003.82,0007.92,0003.12
2023-06-10 14:10:00,SystemResetWarning,0829.7,5.00,000.00,030.0,028.5,000.0,038.5,031.4,25.7,0000.0,0003.89,0008.02,0003.14
2023-06-10 14:11:00,SystemResetWarning,0829.7,5.01,000.00,030.0,028.5,000.0,038.5,031.4,25.8,0000.0,0003.93,0008.22,0003.16
2023-06-10 14:12:00,SystemResetWarning,0829.7,5.00,000.00,030.0,028.5,000.0,038.5,031.4,25.9,0000.0,0003.95,0008.33,0003.18
2023-06-10 14:13:00,SystemResetWarning,0829.7,5.00,000.00,030.0,028.5,000.0,038.5,031.4,26.3,0000.0,0003.96,0008.45,0003.20
2023-06-10 14:14:00,SystemResetWarning,0829.7,5.00,000.00,030.0,028.5,000.0,038.5,031.5,25.9,0000.0,0003.95,0008.42,0003.22
2023-06-10 14:15:00,SystemResetWarning,0829.7,5.00,000.00,030.1,028.5,000.0,038.5,031.5,25.4,0000.0,0003.98,0008.48,0003.22
2023-06-10 14:16:00,SystemResetWarning,0829.8,5.00,000.00,030.1,028.6,000.0,038.6,031.5,24.5,0000.0,0003.99,0008.48,0003.23
2023-06-10 14:17:00,SystemResetWarning,0829.8,5.00,000.00,030.1,028.6,000.0,038.6,031.5,24.6,0000.0,0003.97,0008.39,0003.24
2023-06-10 14:18:00,SystemResetWarning,0829.8,4.99,000.00,030.1,028.6,000.0,038.6,031.5,24.0,0000.0,0003.99,0008.82,0003.24
2023-06-10 14:19:00,SystemResetWarning,0829.8,4.99,000.00,030.1,028.6,000.0,038.6,031.5,24.7,0000.0,0003.97,0008.69,0003.22
2023-06-10 14:20:00,SystemResetWarning,0829.8,5.00,000.00,030.1,028.6,000.0,038.6,031.6,24.4,0000.0,0003.95,0008.79,0003.21
2023-06-10 14:21:00,SystemResetWarning,0829.8,5.00,000.00,030.1,028.6,000.0,038.6,031.6,24.6,0000.0,0003.91,0008.78,0003.21
2023-06-10 14:22:00,SystemResetWarning,0829.8,5.00,000.00,030.1,028.6,000.0,038.6,031.6,25.6,0000.0,0003.86,0008.50,0003.20
2023-06-10 14:23:00,SystemResetWarning,0829.8,5.00,000.00,030.2,028.6,000.0,038.6,031.6,25.5,0000.0,0003.87,0008.43,0003.19
2023-06-10 14:24:00,SystemResetWarning,0829.8,5.00,000.00,030.2,028.7,000.0,038.6,031.6,25.5,0000.0,0003.84,0008.24,0003.19
2023-06-10 14:25:00,SystemResetWarning,0829.8,5.00,000.00,030.2,028.7,000.0,038.7,031.6,25.8,0000.0,0003.85,0008.22,0003.21
2023-06-10 14:26:00,SystemResetWarning,0829.8,5.00,000.00,030.2,028.7,000.0,038.7,031.6,25.6,0000.0,0003.85,0008.22,0003.22
2023-06-10 14:27:00,SystemResetWarning,0829.9,5.00,000.00,030.2,028.7,000.0,038.7,031.6,25.2,0000.0,0003.86,0008.30,0003.22
2023-06-10 14:28:00,SystemResetWarning,0829.9,5.00,000.00,030.2,028.7,000.0,038.7,031.7,25.2,0000.0,0003.85,0008.38,0003.22
2023-06-10 14:29:00,SystemResetWarning,0829.9,5.00,000.00,030.2,028.7,000.0,038.7,031.7,25.1,0000.0,0003.82,0007.93,0003.23
2023-06-10 14:30:00,SystemResetWarning,0829.9,5.00,000.00,030.2,028.7,000.0,038.7,031.6,24.0,0000.0,0003.83,0007.49,0003.24
2023-06-10 14:31:00,SystemResetWarning,0829.9,5.00,000.00,030.2,028.7,000.0,038.7,031.7,23.5,0000.0,0003.83,0007.26,0003.25
2023-06-10 14:32:00,SystemResetWarning,0830.0,5.00,000.00,030.3,028.7,000.0,038.7,031.7,24.2,0000.0,0003.80,0007.28,0003.25
2023-06-10 14:33:00,SystemResetWarning,0830.0,5.00,000.00,030.3,028.8,000.0,038.8,031.7,24.4,0000.0,0003.83,0007.81,0003.25
2023-06-10 14:34:00,SystemResetWarning,0830.0,5.00,000.00,030.3,028.8,000.0,038.8,031.7,24.7,0000.0,0003.81,0008.17,0003.25
2023-06-10 14:35:00,SystemResetWarning,0830.0,5.00,000.00,030.3,028.8,000.0,038.8,031.7,24.3,0000.0,0003.86,0008.57,0003.24
2023-06-10 14:36:00,SystemResetWarning,0830.0,5.00,000.00,030.3,028.8,000.0,038.8,031.7,24.8,0000.0,0003.89,0009.08,0003.25
2023-06-10 14:37:00,SystemResetWarning,0830.0,4.99,000.00,030.3,028.8,000.0,038.8,031.7,24.8,0000.0,0003.92,0009.56,0003.24
2023-06-10 14:38:00,SystemResetWarning,0830.1,4.99,000.00,030.3,028.8,000.0,038.8,031.7,24.8,0000.0,0003.94,0009.66,0003.25
2023-06-10 14:39:00,SystemResetWarning,0830.0,5.01,000.00,030.3,028.8,000.0,038.8,031.8,24.2,0000.0,0003.96,0009.63,0003.25
2023-06-10 14:40:00,SystemResetWarning,0830.0,5.01,000.00,030.4,028.8,000.0,038.8,031.8,25.2,0000.0,0003.98,0009.75,0003.25
2023-06-10 14:41:00,SystemResetWarning,0830.1,4.99,000.00,030.4,028.9,000.0,038.9,031.8,25.5,0000.0,0004.02,0009.86,0003.25
2023-06-10 14:42:00,SystemResetWarning,0830.1,4.99,000.00,030.4,028.5,000.0,038.8,032.0,25.0,0000.0,0004.04,0009.88,0003.26
2023-06-10 14:43:00,SystemResetWarning,0830.1,5.00,000.00,030.4,026.6,000.0,038.8,031.9,25.2,0000.0,0004.04,0009.95,0003.26
2023-06-10 14:44:00,SystemResetWarning,0830.1,5.01,000.00,030.4,025.9,000.0,038.8,031.9,25.1,0000.0,0004.04,0009.52,0003.26
2023-06-10 14:45:00,SystemResetWarning,0830.0,5.01,000.00,030.3,026.1,000.0,038.7,031.6,24.9,0000.0,0004.02,0009.06,0003.26
2023-06-10 14:46:00,SystemResetWarning,0830.0,4.98,000.00,030.2,026.4,000.0,038.7,031.3,25.7,0000.0,0004.00,0008.82,0003.26
2023-06-10 14:47:00,SystemResetWarning,0830.0,4.99,000.00,030.1,026.7,000.0,038.7,031.3,25.9,0000.0,0003.98,0008.48,0003.24
2023-06-10 14:48:00,SystemResetWarning,0830.0,5.01,000.00,030.1,027.0,000.0,038.7,031.3,25.4,0000.0,0003.97,0008.05,0003.24
2023-06-10 14:49:00,SystemResetWarning,0830.1,5.01,000.00,030.0,027.3,000.0,038.7,031.3,25.6,0000.0,0003.91,0007.83,0003.24
2023-06-10 14:50:00,SystemResetWarning,0830.0,4.99,000.00,030.0,027.5,000.0,038.7,031.3,25.6,0000.0,0003.91,0007.75,0003.24
2023-06-10 14:51:00,SystemResetWarning,0830.0,4.98,000.00,030.0,027.7,000.0,038.7,031.3,25.8,0000.0,0003.90,0007.72,0003.24
2023-06-10 14:52:00,SystemResetWarning,0830.0,5.01,000.00,030.0,027.9,000.0,038.7,031.3,26.4,0000.0,0003.89,0007.73,0003.23
2023-06-10 14:53:00,SystemResetWarning,0830.0,5.01,000.00,030.0,028.0,000.0,038.6,031.3,24.9,0000.0,0003.86,0007.68,0003.23
2023-06-10 14:54:00,SystemResetWarning,0830.0,5.00,000.00,030.0,028.1,000.0,038.6,031.3,25.6,0000.0,0003.86,0007.33,0003.24
2023-06-10 14:55:00,SystemResetWarning,0830.0,4.98,000.00,030.0,028.2,000.0,038.6,031.3,25.1,0000.0,0003.92,0007.49,0003.25
2023-06-10 14:56:00,SystemResetWarning,0830.0,5.00,000.00,030.0,028.2,000.0,038.6,031.4,24.5,0000.0,0003.95,0007.55,0003.25
2023-06-10 14:57:00,SystemResetWarning,0830.0,5.00,000.00,030.0,028.3,000.0,038.6,031.4,24.1,0000.0,0003.99,0007.84,0003.27
2023-06-10 14:58:00,SystemResetWarning,0830.0,5.00,000.00,030.0,028.4,000.0,038.6,031.4,23.6,0000.0,0004.01,0007.87,0003.28
2023-06-10 14:59:00,SystemResetWarning,0830.0,5.00,000.00,030.0,028.4,000.0,038.6,031.5,23.9,0000.0,0004.03,0007.89,0003.30
